SCP
0 0 0 0 0 0 0 0 0 0 0 0 0 0 0 0 0 0 0 0 0 0 0 0 0 0 0 0 0 -0 0 0 0 0 0 0 0 0 0 0 0 0 0 0 0 0 0 0 0
0 0 0 0 0 0 0 0 0 0 0 0 0 0 0 0 0 0 0 0 0 0 0 0 0 0 0 -0 -0 -0 -0 -0 0 0 0 0 0 0 0 0 0 0 0 0 0 0 0 0 0
-0 -0 0 0 0 0 0 0 0 0 0 0 0 0 0 0 0 0 0 0 0 0 0 0 0 -0 -0 -0 -0 -0 -0 0 0 0 0 0 0 0 0 0 0 0 0 0 0 0 0 0 0
0 0 0 0 0 0 0 0 0 0 0 0 0 0 0 0 0 0 0 0 0 0 0 0 -0 -0 -0 -0 -0 -0 0 0 0 0 0 0 0 0 0 0 0 0 0 0 0 0 0 0 0
0 0 0 0 0 0 0 0 0 0 0 0 0 0 0 0 0 0 0 0 0 0 0 0 -0 -0 -0 -0 0 0 0 0 0 0 0 0 0 0 0 0 0 0 0 0 0 0 0 0 0
0 0 0 0 0 0 0 0 0 0 0 0 0 0 0 0 0 0 0 0 0 0 0 0 -0 -0 -0 0 0 0 0 0 0 0 0 0 0 0 0 0 0 0 0 0 0 0 0 0 0
0 0 0 0 0 0 0 0 0 0 0 0 0 0 0 0 0 0 0 0 0 0 0 0 0 0 0 0 0 0 0 0 0 0 0 0 0 0 0 0 0 0 0 0 0 0 0 0 0
0 0 0 0 0 0 0 0 0 0 0 0 0 0 0 0 0 0 0 0 0 0 0 0 0 0 0 0 0 0 0 0 0 0 0 0 0 0 0 0 0 0 0 0 0 0 0 0 0
0 0 0 0 0 0 0 0 0 0 0 0 0 0 0 0 0 0 0 0 0 0 0 0 0 0 0 0 0 0 0 0 0 0 0 0 0 0 0 0 0 0 0 0 0 0 0 0 0
0 0 0 0 0 0 0 0 0 0 0 0 0 0 0 0 0 0 0 0 0 0 0 0 0 0 0 0 0 0 0 0 0 0 0 0 0 0 0 0 0 0 0 0 0 0 0 0 0
0 0 0 0 0 0 0 0 0 0 0 0 0 0 0 0 0 0 0 0 0 -0 0 0 0 0 0 0 0 0 0 0 0 0 0 0 0 0 0 0 0 0 0 0 0 0 0 0 0
0 0 0 0 0 0 0 0 0 0 0 0 0 0 0 0 0 0 0 -0 0 0 0 0 0 0 0 0 0 0 0 0 0 0 0 0 0 0 0 0 0 0 0 0 0 0 0 0 0
0 0 0 0 0 0 0 0 0 0 0 0 0 0 0 0 0 0 0 -0 0 0 0 0 0 0 0 0 0 0 0 0 0 0 0 0 0 0 0 0 0 0 0 0 0 0 0 0 0
0 0 0 0 0 0 0 0 0 0 0 0 0 0 0 0 0 0 0 0 0 0 0 0 0 0 0 0 0 0 0 0 0 0 0 0 0 0 0 0 0 0 0 0 0 0 0 0 0
0 0 0 0 0 0 0 0 0 0 0 0 0 0 0 0 0 0 0 0 0 0 0 0 0 0 0 0 0 0 0 0 0 0 0 0 0 0 0 0 0 0 0 0 0 0 0 0 0
0 0 0 0 0 0 0 0 0 0 0 0 0 0 0 0 0 0 0 0 0 0 0 0 0 0 0 0 0 0 0 0 0 0 0 0 0 0 0 0 0 0 0 0 0 0 0 0 0
0 0 0 0 0 0 0 0 0 0 0 0 0 0 0 0 0 0 0 0 0 0 0 0 0 0 0 0 0 0 0 0 0 0 0 0 0 0 0 0 0 0 0 0 0 0 0 0 0
0 0 0 0 0 0 0 0 0 0 0 0 0 0 0 0 0 0 0 0 0 0 0 0 0 0 0 0 0 0 0 0 0 0 0 0 0 0 0 0 0 0 0 0 0 0 0 0 0
0 0 0 0 0 0 0 0 0 0 0 0 0 0 0 0 0 0 0 0 0 0 0 0 0 0 0 0 0 0 0 0 0 0 0 0 0 0 0 0 0 0 0 0 0 0 0 0 0
0 0 0 0 0 0 0 0 0 0 0 0 0 0 0 0 0 0 0 0 0 0 0 0 0 0 0 0 0 0 0 0 0 0 0 0 0 0 0 0 0 0 0 0 0 0 0 0 0
0 0 0 0 0 0 0 -0 0 0 0 0 0 0 0 0 0 0 0 0 0 0 0 0 0 0 0 0 0 0 0 0 0 0 0 0 0 0 0 0 0 0 0 0 0 0 0 0 0
0 0 0 0 0 0 0 0 0 0 0 0 0 0 0 0 0 0 0 0 0 0 0 0 0 0 0 0 0 0 0 0 0 0 0 0 0 0 0 0 0 0 0 0 0 0 0 0 0
0 0 0 0 0 0 0 0 0 0 0 0 0 0 0 0 0 0 0 0 0 0 0 0 0 0 0 0 0 0 0 0 0 0 0 0 0 0 0 0 0 0 0 0 0 0 0 0 0
0 0 0 0 0 0 0 0 0 0 0 0 0 0 0 0 0 0 0 0 0 0 0 0 0 0 0 0 0 0 0 0 0 0 0 0 0 0 0 0 0 0 0 0 0 0 0 0 0
0 0 0 0 0 0 0 0 0 0 0 0 0 0 0 0 0 0 0 0 0 0 0 0 0 0 0 0 0 0 0 0 0 0 0 0 0 0 0 0 0 0 0 0 0 0 0 0 0
0 0 0 0 0 0 0 0 0 0 0 0 0 0 0 0 0 0 0 0 0 0 0 0 0 0 0 0 0 0 0 0 0 0 0 0 0 0 0 0 0 0 0 0 0 0 0 0 0
0 0 0 0 0 0 0 0 0 0 0 0 0 0 0 0 0 0 0 0 0 0 0 0 0 0 0 0 0 0 0 0 0 0 0 0 0 0 0 0 0 0 0 0 0 0 0 0 0
0 0 0 0 0 0 0 0 0 0 0 0 0 0 0 0 0 0 0 0 0 0 0 0 0 0 0 0 0 0 0 0 0 0 0 0 0 0 0 0 0 0 0 0 0 0 0 0 0
0 0 0 0 0 0 0 0 0 0 0 0 0 0 0 0 0 0 0 0 0 0 0 0 0 0 0 0 0 0 0 0 0 0 0 0 0 0 0 0 0 0 0 0 0 0 0 0 0
0 0 0 0 0 0 0 0 0 0 0 0 0 0 0 0 0 0 0 0 0 0 0 0 0 0 0 0 0 0 0 0 0 0 0 0 0 0 0 0 0 0 0 0 0 0 0 0 0
Wind_Speed_500mb
30 26 23 3 6 8 7 13 5 10 6 5 12 18 17 13 3 7 33 37 34 30 26 23 20 15 12 9 10 9 9 7 7 8 9 12 13 13 12 12 12 12 13 13 13 11 11 13 13
31 26 9 2 6 2 11 8 11 5 15 21 18 15 4 4 5 20 34 43 37 27 23 21 19 16 16 15 12 12 11 11 9 10 11 14 15 12 11 13 15 15 17 18 18 18 17 16 15
32 20 6 6 6 11 10 9 15 14 22 14 10 12 7 12 13 39 27 38 33 26 22 20 19 17 16 15 15 15 14 14 14 16 18 20 20 18 19 20 18 17 20 20 21 23 25 25 22
21 5 9 4 18 18 7 10 19 20 13 11 13 11 13 18 25 26 35 34 29 25 22 21 21 22 21 20 18 18 17 16 17 19 22 21 19 19 22 25 24 22 24 27 27 26 25 29 31
6 5 3 7 16 15 8 24 32 10 21 16 13 10 15 25 21 23 36 33 27 23 20 19 21 23 25 24 22 19 18 17 18 19 18 19 20 22 24 26 24 27 29 30 31 33 36 36 36
4 6 3 11 21 21 6 31 35 23 25 25 16 26 12 18 25 30 34 32 25 19 14 13 10 9 8 8 9 11 11 11 10 9 10 12 14 15 16 18 21 24 27 30 33 35 36 38 38
9 2 10 13 17 21 12 20 18 19 25 21 22 14 13 25 29 29 31 29 23 19 15 12 11 12 16 16 15 13 10 7 4 3 4 6 7 9 11 12 15 17 18 20 21 25 30 34 37
14 5 8 11 19 24 19 17 14 15 9 26 25 15 14 38 35 32 31 27 25 22 19 17 15 15 15 14 12 10 8 5 4 5 6 8 8 9 12 14 16 17 18 19 19 21 22 26 31
18 3 9 11 17 21 19 9 11 12 19 11 21 16 16 34 34 36 36 32 28 25 21 19 17 16 15 12 10 7 4 5 2 4 7 9 11 11 13 14 16 16 18 19 20 21 22 25 28
10 7 14 2 3 3 6 8 25 12 11 10 16 16 20 31 35 38 41 38 34 29 25 21 17 13 11 9 6 3 2 4 6 7 9 10 12 14 14 15 17 19 21 23 25 27 28 29 31
8 10 4 3 5 7 9 10 22 18 8 27 40 37 37 40 38 38 39 39 33 28 28 25 20 15 10 7 5 2 3 4 6 7 9 11 13 15 17 18 20 22 24 26 28 30 33 35 39
5 15 6 5 8 9 6 11 8 25 17 16 44 43 47 49 46 44 43 39 35 35 29 26 21 16 14 13 9 4 1 5 9 12 13 14 17 18 20 22 25 27 30 32 33 35 37 38 40
7 9 5 4 12 10 16 15 13 18 41 23 13 33 55 47 42 43 42 38 37 39 35 30 24 22 20 15 10 4 1 6 11 15 18 18 20 22 25 28 31 35 36 39 41 43 46 48 49
5 10 10 9 8 10 6 11 4 21 46 44 48 45 44 52 48 45 51 51 54 48 43 34 28 26 22 17 10 4 4 9 13 16 18 19 22 24 27 30 32 36 39 40 44 47 49 52 55
9 10 12 15 14 8 4 17 23 60 29 40 65 49 53 55 52 54 57 60 62 57 48 41 34 30 24 19 13 8 7 10 15 18 20 22 23 27 31 34 36 39 41 43 46 48 51 53 56
1 2 7 2 14 6 7 19 7 9 51 55 46 57 61 56 61 56 56 61 63 59 53 45 41 34 31 24 17 11 10 12 16 17 20 23 25 30 32 35 37 40 42 45 47 51 55 59 61
4 8 9 8 18 6 11 16 11 10 29 48 53 46 62 62 62 61 59 63 65 63 55 54 46 40 35 29 20 13 13 14 17 20 22 24 26 29 34 36 39 40 42 44 47 50 55 59 63
12 8 10 13 9 6 8 35 32 54 40 37 47 52 58 68 70 72 67 66 64 62 59 55 50 45 41 34 25 18 15 16 20 24 25 26 26 31 34 37 39 40 42 44 47 50 51 57 64
5 6 9 7 6 8 16 28 37 37 36 44 60 65 66 75 69 66 71 71 69 64 63 62 58 52 49 41 30 23 17 17 22 26 25 24 29 33 37 38 39 39 41 44 47 50 52 52 58
7 7 12 4 5 6 13 28 38 35 30 54 58 67 81 73 73 70 72 78 78 76 71 67 61 55 51 43 34 24 20 19 21 26 25 28 31 35 37 37 38 39 39 41 44 47 52 52 54
7 10 7 6 6 9 12 19 16 13 35 50 57 70 79 80 73 76 81 82 80 82 78 73 64 57 53 48 41 30 25 22 22 27 27 29 32 36 36 36 37 38 40 41 41 42 46 54 54
7 7 4 1 2 8 4 12 13 18 16 12 36 59 69 73 78 73 80 84 81 79 76 73 63 59 57 53 45 35 30 28 23 27 29 29 33 35 35 35 36 36 38 37 37 40 45 51 58
10 4 5 4 4 5 5 6 16 10 16 16 18 36 50 60 68 75 79 79 76 75 74 68 64 62 63 57 48 42 37 32 27 29 31 31 34 33 33 33 34 35 35 35 38 41 44 50 59
12 8 7 6 4 4 14 14 9 11 10 5 2 21 29 36 44 48 55 76 77 73 69 63 63 67 65 60 52 48 41 35 31 30 30 31 33 32 32 32 33 33 32 34 37 43 50 55 63
2 10 1 6 3 13 3 7 13 21 13 8 12 11 24 27 30 38 44 61 70 71 67 62 61 68 68 63 57 50 45 40 34 32 31 31 34 32 31 31 31 28 28 33 42 51 56 63 71
12 10 10 15 8 6 6 13 13 15 9 10 19 25 25 28 31 37 47 52 59 61 59 57 61 66 67 64 58 52 50 43 37 34 33 32 34 32 31 31 29 25 28 37 47 53 59 67 74
11 9 3 9 5 6 10 14 19 14 12 12 25 31 33 29 33 36 42 57 56 53 49 46 51 60 65 64 59 57 53 46 38 36 34 33 33 32 30 29 25 24 31 42 49 57 64 72 79
5 2 4 5 4 9 10 11 14 11 16 13 14 26 37 34 36 39 42 52 51 44 38 43 47 53 57 61 61 60 54 48 42 38 33 33 32 30 29 27 23 25 35 44 52 60 67 75 80
7 6 3 3 8 9 4 12 13 18 16 20 21 38 42 47 48 46 45 47 49 44 40 42 50 55 57 59 60 61 57 51 44 39 33 32 31 28 26 24 22 28 38 45 54 62 69 78 84
4 12 12 8 11 8 5 17 8 9 11 12 14 27 43 46 48 48 47 47 49 47 43 44 47 54 56 56 59 59 57 52 46 37 33 31 29 27 26 22 22 30 38 46 55 64 69 78 86
Wind_Direction_500mb
331 339 322 338 45 66 248 251 172 142 111 102 64 76 124 77 100 182 152 179 193 191 179 190 198 199 196 192 200 198 211 229 245 263 286 298 292 293 298 303 297 304 310 314 321 320 295 289 277
330 332 341 329 108 24 273 239 186 175 133 112 96 100 59 105 150 158 159 176 190 186 179 192 204 218 226 227 230 229 231 241 260 278 287 288 298 305 310 326 321 309 304 300 295 298 302 300 284
320 317 306 133 181 199 219 187 133 125 130 114 97 74 102 122 145 152 161 173 188 185 190 199 209 217 223 228 231 243 257 266 266 274 288 293 291 280 289 297 300 299 305 307 301 291 288 291 288
311 263 259 149 247 255 221 227 142 135 129 131 137 103 122 144 170 176 163 182 191 191 199 208 223 236 242 241 240 243 251 258 265 273 283 287 285 282 286 294 294 292 284 288 290 292 287 282 287
290 260 256 234 243 263 230 167 151 136 149 173 154 167 141 172 187 184 179 187 196 196 204 226 245 253 252 245 241 243 248 257 264 268 275 278 276 278 284 288 289 285 283 283 282 281 283 284 284
264 242 237 235 250 258 220 171 158 154 168 180 150 141 175 197 200 177 179 193 201 208 219 229 236 235 216 207 212 225 236 246 260 276 283 284 286 290 292 292 287 283 281 280 279 279 280 281 279
175 136 226 243 265 283 198 170 158 168 150 167 158 132 170 188 198 188 187 197 205 208 204 190 167 136 120 119 119 121 119 105 78 29 350 336 321 322 322 318 313 308 305 302 299 292 287 283 279
202 154 241 229 248 270 191 150 180 178 162 163 170 176 194 193 195 193 196 201 203 201 198 186 169 154 144 134 128 119 109 100 63 19 357 355 347 342 338 339 332 330 322 316 311 305 298 294 291
207 237 227 231 235 247 165 144 144 145 137 150 174 174 193 188 189 196 197 200 204 202 190 179 171 158 146 142 127 112 106 76 45 15 3 349 340 341 336 332 327 322 317 316 315 311 307 300 296
175 195 223 273 356 321 235 162 164 157 145 177 176 191 182 181 193 199 202 204 204 201 191 182 176 167 169 151 137 147 76 20 12 2 351 337 330 326 323 318 316 316 319 319 317 317 316 310 305
213 220 258 351 346 332 268 182 179 154 208 210 197 193 193 194 202 207 208 213 215 201 197 190 187 181 183 191 196 196 50 3 360 344 346 336 327 327 323 322 323 325 321 321 321 320 316 312 309
246 252 248 311 339 347 340 289 195 192 207 240 230 230 216 212 214 214 209 205 202 207 204 198 194 197 200 206 209 209 6 356 340 343 342 338 332 331 330 333 333 331 331 328 327 322 319 316 314
209 308 298 263 298 295 287 264 248 244 227 212 225 214 217 218 223 220 212 205 207 215 211 208 200 207 202 210 210 191 329 347 342 338 334 335 335 335 339 338 338 335 332 331 326 325 324 321 318
322 298 284 269 256 257 267 265 311 245 242 231 238 231 219 220 225 217 206 201 206 216 219 214 209 209 205 207 203 222 323 339 334 329 327 331 333 335 336 336 333 330 329 327 326 326 324 322 320
318 316 290 232 213 224 248 276 232 242 229 227 225 227 229 225 222 224 213 205 208 218 221 216 212 211 208 204 206 241 290 330 331 324 326 328 332 333 335 334 332 328 326 326 327 326 323 320 318
181 223 286 37 133 203 153 264 263 296 225 228 227 226 229 226 225 226 216 211 211 220 220 216 213 210 211 204 215 245 288 319 321 320 324 322 330 331 331 328 326 325 326 328 328 327 325 323 322
207 245 234 274 188 133 184 275 274 326 227 228 227 230 225 226 223 223 219 214 215 220 220 217 213 213 210 210 222 245 277 300 311 310 319 325 325 327 326 326 326 326 329 330 327 327 325 325 324
193 210 254 241 194 170 224 264 269 269 273 262 242 234 230 227 227 218 217 217 221 223 221 219 216 213 210 214 223 241 267 290 306 314 317 320 323 323 324 326 327 329 331 329 326 327 329 331 328
108 216 245 258 197 209 232 258 269 263 254 250 245 236 230 230 232 222 216 217 219 223 221 218 215 211 213 214 222 237 263 290 312 311 308 314 315 323 327 325 327 329 329 329 329 330 332 337 333
210 249 264 260 181 204 281 268 268 261 242 234 231 231 232 232 228 221 216 217 220 223 220 219 218 214 216 217 229 240 260 281 304 309 305 308 321 323 321 323 326 327 328 330 332 335 336 337 337
217 202 236 250 301 232 316 282 259 271 240 246 235 235 238 233 225 217 213 217 219 221 220 220 220 217 218 220 227 236 251 268 298 313 307 311 314 318 319 321 325 327 329 332 335 337 334 330 334
225 183 179 252 14 247 182 284 286 277 264 226 235 227 232 230 227 220 215 216 218 221 221 223 223 220 221 224 230 238 249 261 290 307 306 305 312 315 317 319 321 324 324 329 332 333 332 328 327
217 136 136 138 201 349 240 264 271 254 263 244 235 230 229 227 224 217 214 218 220 221 219 224 226 225 226 227 230 237 245 256 279 301 307 306 309 312 313 315 318 319 323 328 329 329 329 327 322
144 99 59 51 83 316 218 194 248 224 241 310 353 219 220 213 210 210 215 216 217 216 219 222 223 225 228 232 233 238 246 254 274 295 304 302 307 310 312 314 314 318 322 325 327 326 326 326 322
163 104 328 343 5 227 306 175 262 273 255 230 211 192 187 193 195 196 194 205 210 210 216 220 224 223 227 232 235 238 246 254 271 292 301 304 307 309 309 309 311 316 320 326 326 326 330 328 324
188 180 169 204 201 247 20 231 251 243 262 230 187 172 178 190 201 199 196 198 203 212 216 222 223 223 228 234 237 240 245 253 269 288 298 300 303 304 304 307 311 317 324 324 325 328 330 328 325
189 205 255 101 55 53 224 274 295 227 193 167 167 176 185 194 193 190 189 197 200 206 212 217 221 227 233 237 238 241 245 253 267 283 291 294 298 299 301 304 308 314 322 323 328 331 332 329 327
190 208 108 355 161 248 270 260 233 231 215 215 219 207 198 193 193 189 186 186 190 194 206 219 228 234 238 240 240 243 247 252 262 276 282 287 291 293 297 300 303 316 321 326 331 333 332 328 329
162 210 188 142 172 187 264 257 227 229 222 205 226 219 207 200 199 195 188 189 193 197 211 224 233 237 238 239 239 241 246 251 260 271 273 280 285 286 292 291 303 317 323 330 333 335 331 329 335
232 202 170 140 230 233 172 258 256 222 193 192 227 231 215 206 203 204 201 197 199 204 217 227 237 243 241 240 240 242 244 248 257 263 266 274 278 282 286 286 305 317 326 332 335 334 332 335 340
Wind_Speed_850mb
30 26 23 3 6 8 7 13 5 10 6 5 12 18 17 13 3 7 33 37 34 30 26 23 20 15 12 9 10 9 9 7 7 8 9 12 13 13 12 12 12 12 13 13 13 11 11 13 13
31 26 9 2 6 2 11 8 11 5 15 21 18 15 4 4 5 20 34 43 37 27 23 21 19 16 16 15 12 12 11 11 9 10 11 14 15 12 11 13 15 15 17 18 18 18 17 16 15
32 20 6 6 6 11 10 9 15 14 22 14 10 12 7 12 13 39 27 38 33 26 22 20 19 17 16 15 15 15 14 14 14 16 18 20 20 18 19 20 18 17 20 20 21 23 25 25 22
21 5 9 4 18 18 7 10 19 20 13 11 13 11 13 18 25 26 35 34 29 25 22 21 21 22 21 20 18 18 17 16 17 19 22 21 19 19 22 25 24 22 24 27 27 26 25 29 31
6 5 3 7 16 15 8 24 32 10 21 16 13 10 15 25 21 23 36 33 27 23 20 19 21 23 25 24 22 19 18 17 18 19 18 19 20 22 24 26 24 27 29 30 31 33 36 36 36
4 6 3 11 21 21 6 31 35 23 25 25 16 26 12 18 25 30 34 32 25 19 14 13 10 9 8 8 9 11 11 11 10 9 10 12 14 15 16 18 21 24 27 30 33 35 36 38 38
9 2 10 13 17 21 12 20 18 19 25 21 22 14 13 25 29 29 31 29 23 19 15 12 11 12 16 16 15 13 10 7 4 3 4 6 7 9 11 12 15 17 18 20 21 25 30 34 37
14 5 8 11 19 24 19 17 14 15 9 26 25 15 14 38 35 32 31 27 25 22 19 17 15 15 15 14 12 10 8 5 4 5 6 8 8 9 12 14 16 17 18 19 19 21 22 26 31
18 3 9 11 17 21 19 9 11 12 19 11 21 16 16 34 34 36 36 32 28 25 21 19 17 16 15 12 10 7 4 5 2 4 7 9 11 11 13 14 16 16 18 19 20 21 22 25 28
10 7 14 2 3 3 6 8 25 12 11 10 16 16 20 31 35 38 41 38 34 29 25 21 17 13 11 9 6 3 2 4 6 7 9 10 12 14 14 15 17 19 21 23 25 27 28 29 31
8 10 4 3 5 7 9 10 22 18 8 27 40 37 37 40 38 38 39 39 33 28 28 25 20 15 10 7 5 2 3 4 6 7 9 11 13 15 17 18 20 22 24 26 28 30 33 35 39
5 15 6 5 8 9 6 11 8 25 17 16 44 43 47 49 46 44 43 39 35 35 29 26 21 16 14 13 9 4 1 5 9 12 13 14 17 18 20 22 25 27 30 32 33 35 37 38 40
7 9 5 4 12 10 16 15 13 18 41 23 13 33 55 47 42 43 42 38 37 39 35 30 24 22 20 15 10 4 1 6 11 15 18 18 20 22 25 28 31 35 36 39 41 43 46 48 49
5 10 10 9 8 10 6 11 4 21 46 44 48 45 44 52 48 45 51 51 54 48 43 34 28 26 22 17 10 4 4 9 13 16 18 19 22 24 27 30 32 36 39 40 44 47 49 52 55
9 10 12 15 14 8 4 17 23 60 29 40 65 49 53 55 52 54 57 60 62 57 48 41 34 30 24 19 13 8 7 10 15 18 20 22 23 27 31 34 36 39 41 43 46 48 51 53 56
1 2 7 2 14 6 7 19 7 9 51 55 46 57 61 56 61 56 56 61 63 59 53 45 41 34 31 24 17 11 10 12 16 17 20 23 25 30 32 35 37 40 42 45 47 51 55 59 61
4 8 9 8 18 6 11 16 11 10 29 48 53 46 62 62 62 61 59 63 65 63 55 54 46 40 35 29 20 13 13 14 17 20 22 24 26 29 34 36 39 40 42 44 47 50 55 59 63
12 8 10 13 9 6 8 35 32 54 40 37 47 52 58 68 70 72 67 66 64 62 59 55 50 45 41 34 25 18 15 16 20 24 25 26 26 31 34 37 39 40 42 44 47 50 51 57 64
5 6 9 7 6 8 16 28 37 37 36 44 60 65 66 75 69 66 71 71 69 64 63 62 58 52 49 41 30 23 17 17 22 26 25 24 29 33 37 38 39 39 41 44 47 50 52 52 58
7 7 12 4 5 6 13 28 38 35 30 54 58 67 81 73 73 70 72 78 78 76 71 67 61 55 51 43 34 24 20 19 21 26 25 28 31 35 37 37 38 39 39 41 44 47 52 52 54
7 10 7 6 6 9 12 19 16 13 35 50 57 70 79 80 73 76 81 82 80 82 78 73 64 57 53 48 41 30 25 22 22 27 27 29 32 36 36 36 37 38 40 41 41 42 46 54 54
7 7 4 1 2 8 4 12 13 18 16 12 36 59 69 73 78 73 80 84 81 79 76 73 63 59 57 53 45 35 30 28 23 27 29 29 33 35 35 35 36 36 38 37 37 40 45 51 58
10 4 5 4 4 5 5 6 16 10 16 16 18 36 50 60 68 75 79 79 76 75 74 68 64 62 63 57 48 42 37 32 27 29 31 31 34 33 33 33 34 35 35 35 38 41 44 50 59
12 8 7 6 4 4 14 14 9 11 10 5 2 21 29 36 44 48 55 76 77 73 69 63 63 67 65 60 52 48 41 35 31 30 30 31 33 32 32 32 33 33 32 34 37 43 50 55 63
2 10 1 6 3 13 3 7 13 21 13 8 12 11 24 27 30 38 44 61 70 71 67 62 61 68 68 63 57 50 45 40 34 32 31 31 34 32 31 31 31 28 28 33 42 51 56 63 71
12 10 10 15 8 6 6 13 13 15 9 10 19 25 25 28 31 37 47 52 59 61 59 57 61 66 67 64 58 52 50 43 37 34 33 32 34 32 31 31 29 25 28 37 47 53 59 67 74
11 9 3 9 5 6 10 14 19 14 12 12 25 31 33 29 33 36 42 57 56 53 49 46 51 60 65 64 59 57 53 46 38 36 34 33 33 32 30 29 25 24 31 42 49 57 64 72 79
5 2 4 5 4 9 10 11 14 11 16 13 14 26 37 34 36 39 42 52 51 44 38 43 47 53 57 61 61 60 54 48 42 38 33 33 32 30 29 27 23 25 35 44 52 60 67 75 80
7 6 3 3 8 9 4 12 13 18 16 20 21 38 42 47 48 46 45 47 49 44 40 42 50 55 57 59 60 61 57 51 44 39 33 32 31 28 26 24 22 28 38 45 54 62 69 78 84
4 12 12 8 11 8 5 17 8 9 11 12 14 27 43 46 48 48 47 47 49 47 43 44 47 54 56 56 59 59 57 52 46 37 33 31 29 27 26 22 22 30 38 46 55 64 69 78 86
Wind_Direction_850mb
331 339 322 338 45 66 248 251 172 142 111 102 64 76 124 77 100 182 152 179 193 191 179 190 198 199 196 192 200 198 211 229 245 263 286 298 292 293 298 303 297 304 310 314 321 320 295 289 277
330 332 341 329 108 24 273 239 186 175 133 112 96 100 59 105 150 158 159 176 190 186 179 192 204 218 226 227 230 229 231 241 260 278 287 288 298 305 310 326 321 309 304 300 295 298 302 300 284
320 317 306 133 181 199 219 187 133 125 130 114 97 74 102 122 145 152 161 173 188 185 190 199 209 217 223 228 231 243 257 266 266 274 288 293 291 280 289 297 300 299 305 307 301 291 288 291 288
311 263 259 149 247 255 221 227 142 135 129 131 137 103 122 144 170 176 163 182 191 191 199 208 223 236 242 241 240 243 251 258 265 273 283 287 285 282 286 294 294 292 284 288 290 292 287 282 287
290 260 256 234 243 263 230 167 151 136 149 173 154 167 141 172 187 184 179 187 196 196 204 226 245 253 252 245 241 243 248 257 264 268 275 278 276 278 284 288 289 285 283 283 282 281 283 284 284
264 242 237 235 250 258 220 171 158 154 168 180 150 141 175 197 200 177 179 193 201 208 219 229 236 235 216 207 212 225 236 246 260 276 283 284 286 290 292 292 287 283 281 280 279 279 280 281 279
175 136 226 243 265 283 198 170 158 168 150 167 158 132 170 188 198 188 187 197 205 208 204 190 167 136 120 119 119 121 119 105 78 29 350 336 321 322 322 318 313 308 305 302 299 292 287 283 279
202 154 241 229 248 270 191 150 180 178 162 163 170 176 194 193 195 193 196 201 203 201 198 186 169 154 144 134 128 119 109 100 63 19 357 355 347 342 338 339 332 330 322 316 311 305 298 294 291
207 237 227 231 235 247 165 144 144 145 137 150 174 174 193 188 189 196 197 200 204 202 190 179 171 158 146 142 127 112 106 76 45 15 3 349 340 341 336 332 327 322 317 316 315 311 307 300 296
175 195 223 273 356 321 235 162 164 157 145 177 176 191 182 181 193 199 202 204 204 201 191 182 176 167 169 151 137 147 76 20 12 2 351 337 330 326 323 318 316 316 319 319 317 317 316 310 305
213 220 258 351 346 332 268 182 179 154 208 210 197 193 193 194 202 207 208 213 215 201 197 190 187 181 183 191 196 196 50 3 360 344 346 336 327 327 323 322 323 325 321 321 321 320 316 312 309
246 252 248 311 339 347 340 289 195 192 207 240 230 230 216 212 214 214 209 205 202 207 204 198 194 197 200 206 209 209 6 356 340 343 342 338 332 331 330 333 333 331 331 328 327 322 319 316 314
209 308 298 263 298 295 287 264 248 244 227 212 225 214 217 218 223 220 212 205 207 215 211 208 200 207 202 210 210 191 329 347 342 338 334 335 335 335 339 338 338 335 332 331 326 325 324 321 318
322 298 284 269 256 257 267 265 311 245 242 231 238 231 219 220 225 217 206 201 206 216 219 214 209 209 205 207 203 222 323 339 334 329 327 331 333 335 336 336 333 330 329 327 326 326 324 322 320
318 316 290 232 213 224 248 276 232 242 229 227 225 227 229 225 222 224 213 205 208 218 221 216 212 211 208 204 206 241 290 330 331 324 326 328 332 333 335 334 332 328 326 326 327 326 323 320 318
181 223 286 37 133 203 153 264 263 296 225 228 227 226 229 226 225 226 216 211 211 220 220 216 213 210 211 204 215 245 288 319 321 320 324 322 330 331 331 328 326 325 326 328 328 327 325 323 322
207 245 234 274 188 133 184 275 274 326 227 228 227 230 225 226 223 223 219 214 215 220 220 217 213 213 210 210 222 245 277 300 311 310 319 325 325 327 326 326 326 326 329 330 327 327 325 325 324
193 210 254 241 194 170 224 264 269 269 273 262 242 234 230 227 227 218 217 217 221 223 221 219 216 213 210 214 223 241 267 290 306 314 317 320 323 323 324 326 327 329 331 329 326 327 329 331 328
108 216 245 258 197 209 232 258 269 263 254 250 245 236 230 230 232 222 216 217 219 223 221 218 215 211 213 214 222 237 263 290 312 311 308 314 315 323 327 325 327 329 329 329 329 330 332 337 333
210 249 264 260 181 204 281 268 268 261 242 234 231 231 232 232 228 221 216 217 220 223 220 219 218 214 216 217 229 240 260 281 304 309 305 308 321 323 321 323 326 327 328 330 332 335 336 337 337
217 202 236 250 301 232 316 282 259 271 240 246 235 235 238 233 225 217 213 217 219 221 220 220 220 217 218 220 227 236 251 268 298 313 307 311 314 318 319 321 325 327 329 332 335 337 334 330 334
225 183 179 252 14 247 182 284 286 277 264 226 235 227 232 230 227 220 215 216 218 221 221 223 223 220 221 224 230 238 249 261 290 307 306 305 312 315 317 319 321 324 324 329 332 333 332 328 327
217 136 136 138 201 349 240 264 271 254 263 244 235 230 229 227 224 217 214 218 220 221 219 224 226 225 226 227 230 237 245 256 279 301 307 306 309 312 313 315 318 319 323 328 329 329 329 327 322
144 99 59 51 83 316 218 194 248 224 241 310 353 219 220 213 210 210 215 216 217 216 219 222 223 225 228 232 233 238 246 254 274 295 304 302 307 310 312 314 314 318 322 325 327 326 326 326 322
163 104 328 343 5 227 306 175 262 273 255 230 211 192 187 193 195 196 194 205 210 210 216 220 224 223 227 232 235 238 246 254 271 292 301 304 307 309 309 309 311 316 320 326 326 326 330 328 324
188 180 169 204 201 247 20 231 251 243 262 230 187 172 178 190 201 199 196 198 203 212 216 222 223 223 228 234 237 240 245 253 269 288 298 300 303 304 304 307 311 317 324 324 325 328 330 328 325
189 205 255 101 55 53 224 274 295 227 193 167 167 176 185 194 193 190 189 197 200 206 212 217 221 227 233 237 238 241 245 253 267 283 291 294 298 299 301 304 308 314 322 323 328 331 332 329 327
190 208 108 355 161 248 270 260 233 231 215 215 219 207 198 193 193 189 186 186 190 194 206 219 228 234 238 240 240 243 247 252 262 276 282 287 291 293 297 300 303 316 321 326 331 333 332 328 329
162 210 188 142 172 187 264 257 227 229 222 205 226 219 207 200 199 195 188 189 193 197 211 224 233 237 238 239 239 241 246 251 260 271 273 280 285 286 292 291 303 317 323 330 333 335 331 329 335
232 202 170 140 230 233 172 258 256 222 193 192 227 231 215 206 203 204 201 197 199 204 217 227 237 243 241 240 240 242 244 248 257 263 266 274 278 282 286 286 305 317 326 332 335 334 332 335 340